Weather in Nambour

Australia     26°37′39″S   152°57′36″E
temp.,
°C
wind,
m/s
gust,
m/s
humid.,
%
clouds,
%
prec.,
mm/h
press.,
hPa
HPBL,
m
12 august, fri
fri1201:00+14wnw018599 0.1 102347
04:00+14wnw118798 0.1 102240
07:00+14wsw1191100 0.0 102356
10:00+17ese1278100 0.1 1022359
13:00+16ssw1192100 0.1 1020179
16:00+16ne1291100 0.6 1019137
19:00+15n1594100 0.1 1020212
22:00+15nnw1495100 0.2 1020117
13 august, sat
sat1301:00+14nw2597100 0.0 1018141
04:00+13nw1397100 0.0 101781
07:00+14nnw2694100 0.0 1017170
10:00+17nnw21188100 0.3 1017610
13:00+16wnw278993 0.2 1015374
16:00+13sw299151 1.9 1016462
19:00+10w129654 0.0 101741
22:00+9w11920 0.0 101823
14 august, sun
sun1401:00+8w11900 0.0 101722
04:00+8w21940 0.0 101629
07:00+8w11920 0.0 101735
10:00+19w26360 0.0 10161359
13:00+21w36301 0.0 10142096
16:00+20wsw25381 0.0 10131641
19:00+12wsw22670 0.0 101637
22:00+11wsw23670 0.0 101754
15 august, mon
mon1501:00+9wsw22690 0.0 101745
04:00+8w22710 0.0 101637
07:00+9w23680 0.0 101864
10:00+17wsw35390 0.0 10171179
13:00+20wsw353317 0.0 10141725
16:00+19wsw25400 0.0 10131443
19:00+11w21660 0.0 101530
22:00+10w22690 0.0 101635
16 august, tue
tue1601:00+9w21720 0.0 101626
04:00+8w21730 0.0 101527
07:00+9wnw22710 0.0 101648
10:00+19w25365 0.0 10151973
13:00+20wsw373398 0.0 10122773
16:00+18wnw1249100 0.0 101088
19:00+11se018350 0.3 101344
22:00+9w21885 0.3 101426